Regional Weather Roundup
Issued by NWS Huntsville, AL

Home | Current Version | Previous Version | Text Only | Print | Product List | Glossary On
Versions: 1 2 3 4 5 6 7 8 9 10 11 12 13 14 15 16 17 18 19 20 21 22 23 24 25 26 27 28 29 30 31 32 33 34 35 36 37 38 39 40 41 42 43 44 45 46 47 48 49 50
968
ASUS44 KHUN 180710
RWRHUN

WEATHER ROUNDUP FOR THE TENNESSEE VALLEY
NATIONAL WEATHER SERVICE HUNTSVILLE AL
200 AM CDT SUN AUG 18 2019

ALZ001>004-180800-
NORTHWEST ALABAMA

CITY           SKY/WX    TMP DP  RH WIND       PRES   REMARKS
SHOALS AIRPORT FAIR      73  70  90 CALM      29.96F
$$

ALZ005>007-016-180800-
NORTH CENTRAL ALABAMA

CITY           SKY/WX    TMP DP  RH WIND       PRES   REMARKS
DECATUR AP     FAIR      68  66  93 N3        29.97F
HUNTSVILLE AP  FAIR      74  67  78 CALM      29.96F
MERIDIANVILLE  CLEAR     69  68  96 CALM      29.98F
VINEMONT AP    FAIR      78  61  55 E5        30.00S
$$

ALZ008>010-180800-
NORTHEAST ALABAMA

CITY           SKY/WX    TMP DP  RH WIND       PRES   REMARKS
ALBERTVILLE    FAIR      72  61  68 E5        30.00F
FORT PAYNE     FAIR      66  64  93 NE3       29.99F
SCOTTSBORO AP  FAIR      70  68  94 CALM      29.99F
$$

TNZ076-096-097-180800-
SOUTHEASTERN MIDDLE TENNESSEE

CITY           SKY/WX    TMP DP  RH WIND       PRES   REMARKS
FAYETTEVILLE   CLEAR     73  68  83 E6        29.98S
TULLAHOMA      CLEAR     66  66 100 CALM      29.98F
WINCHESTER     CLEAR     68  66  94 S5        29.98F
$$

...SURROUNDING SITES...

CITY           SKY/WX    TMP DP  RH WIND       PRES   REMARKS
ATLANTA        FAIR      77  69  76 SW9       30.01F
ANNISTON       FAIR      72  66  81 N3        29.98F
BIRMINGHAM     FAIR      77  62  59 CALM      29.98F
CHATTANOOGA    FAIR      75  70  84 CALM      29.99F
CORINTH        FAIR      72  72 100 CALM      29.95F
DALTON         NOT AVBL
GADSDEN        FAIR      69  69 100 CALM      29.98F
GOLDEN TRNGL   FAIR      73  71  93 CALM      29.94F
HALEYVILLE     FAIR      69  67  93 E3        30.00F
JACKSON TN     FAIR      70  68  93 CALM      29.95F
MEMPHIS        FAIR      79  71  76 S6        29.92F
NASHVILLE      FAIR      74  69  85 CALM      29.97F
OXFORD MS      FAIR      72  68  88 CALM      29.95F
ROME           FAIR      71  66  84 CALM      29.98S
SAVANNAH       CLEAR     70  68  94 CALM      29.94F
SELMER         CLEAR     70  68  94 CALM      29.95F
TUPELO         FAIR      75  71  87 NE3       29.94F
TUSCALOOSA     FAIR      74  70  87 CALM      29.94F
$$





USA.gov is the U.S. government's official web portal to all federal, state and local government web resources and services.